GW1238 Weather Reports


time (UTC)temp
C
wind
direction
speed
KPH
gust
KPH
rain 1hr
cm
rain 24hr
cm
rain mn
cm
humidity
%
barometer
mb
20260902235243 30 338 3.2 3.2 0.00 0.00 0.00 72 1019.3
20260902234742 30 341 3.2 3.2 0.00 0.00 0.00 72 1019.3
20260902234242 30 344 1.6 3.2 0.00 0.00 0.00 71 1019.3
20260902233742 31 344 1.6 3.2 0.00 0.00 0.00 71 1019.4
20260902233242 31 341 1.6 3.2 0.00 0.00 0.00 70 1019.4
20260902232740 31 339 1.6 3.2 0.00 0.00 0.00 69 1019.5
20260902232234 31 330 3.2 3.2 0.00 0.00 0.00 65 1019.3
20260902231728 32 337 1.6 3.2 0.00 0.00 0.00 62 1019.3
20260902231223 32 341 1.6 3.2 0.00 0.00 0.00 62 1019.2
20260902230718 32 336 3.2 3.2 0.00 0.00 0.00 61 1019.2
20260902230217 33 349 1.6 1.6 0.00 0.00 0.00 57 1019.4
20260902225713 34 348 1.6 1.6 0.00 0.00 0.00 55 1019.3
20260902225212 36 347 0.0 1.6 0.00 0.00 0.00 50 1019.3
20260902224711 36 152 0.0 1.6 0.00 0.00 0.00 51 1019.3
20260902224207 36 265 0.0 1.6 0.00 0.00 0.00 50 1019.4
20260902223703 36 342 0.0 1.6 0.00 0.00 0.00 50 1019.3
20260902223202 37 178 0.0 0.0 0.00 0.00 0.00 50 1019.6
20260902222701 36 331 0.0 1.6 0.00 0.00 0.00 52 1019.3
20260902222200 37 137 0.0 1.6 0.00 0.00 0.00 52 1019.5
20260902221655 37 212 0.0 0.0 0.00 0.00 0.00 50 1019.4
20260902221149 35 109 1.6 3.2 0.00 0.00 0.00 57 1019.6
20260902220645 35 136 1.6 1.6 0.00 0.00 0.00 54 1019.5
20260902220145 35 144 0.0 0.0 0.00 0.00 0.00 56 1019.6
20260902215641 35 113 1.6 1.6 0.00 0.00 0.00 61 1019.6
20260902215136 35 127 0.0 1.6 0.00 0.00 0.00 60 1019.6
20260902214631 35 112 1.6 1.6 0.00 0.00 0.00 56 1019.6
20260902214130 36 86 1.6 3.2 0.00 0.00 0.00 48 1019.5
20260902213625 37 123 1.6 1.6 0.00 0.00 0.00 54 1019.6
20260902213124 36 144 0.0 0.0 0.00 0.00 0.00 54 1019.6
20260902212620 36 154 0.0 1.6 0.00 0.00 0.00 48 1019.7
20260902212116 36 139 1.6 1.6 0.00 0.00 0.00 52 1019.7
20260902211612 35 113 1.6 3.2 0.00 0.00 0.00 51 1019.7
20260902211108 35 115 1.6 1.6 0.00 0.00 0.00 56 1019.5
20260902210607 35 119 1.6 3.2 0.00 0.00 0.00 55 1019.5
20260902210108 36 127 1.6 1.6 0.00 0.00 0.00 49 1019.8
20260902205606 37 150 0.0 0.0 0.00 0.00 0.00 48 1019.7
20260902205102 37 150 0.0 0.0 0.00 0.00 0.00 51 1019.8
20260902204557 37 135 0.0 0.0 0.00 0.00 0.00 49 1019.7
20260902204057 36 134 0.0 1.6 0.00 0.00 0.00 50 1019.9
20260902203553 35 120 1.6 1.6 0.00 0.00 0.00 54 1019.9
20260902203051 35 125 1.6 3.2 0.00 0.00 0.00 58 1019.9
20260902202548 36 142 0.0 1.6 0.00 0.00 0.00 50 1019.9
20260902202044 35 101 1.6 3.2 0.00 0.00 0.00 49 1020.0
20260902201539 35 110 1.6 1.6 0.00 0.00 0.00 52 1020.0
20260902201038 36 135 0.0 0.0 0.00 0.00 0.00 47 1020.2
20260902200534 35 122 1.6 1.6 0.00 0.00 0.00 48 1020.0
20260902200030 36 156 0.0 1.6 0.00 0.00 0.00 47 1020.2
20260902195526 35 156 1.6 3.2 0.00 0.00 0.00 53 1020.2
20260902195024 35 160 1.6 3.2 0.00 0.00 0.00 48 1020.4
20260902194524 35 136 0.0 1.6 0.00 0.00 0.00 54 1020.3
20260902194019 35 132 1.6 3.2 0.00 0.00 0.00 52 1020.3
20260902193515 35 121 1.6 3.2 0.00 0.00 0.00 57 1020.5
20260902193015 34 106 3.2 4.8 0.00 0.00 0.00 51 1020.7
20260902192513 35 142 0.0 1.6 0.00 0.00 0.00 54 1020.6
20260902192012 35 131 0.0 1.6 0.00 0.00 0.00 55 1020.9
20260902191508 34 144 1.6 1.6 0.00 0.00 0.00 55 1020.7
20260902191002 34 146 1.6 1.6 0.00 0.00 0.00 55 1020.8
20260902190458 33 125 1.6 1.6 0.00 0.00 0.00 55 1021.0
20260902185953 33 117 1.6 1.6 0.00 0.00 0.00 61 1021.0
20260902185449 33 116 3.2 4.8 0.00 0.00 0.00 55 1021.0
20260902184944 33 136 1.6 3.2 0.00 0.00 0.00 61 1021.1
20260902184439 33 137 3.2 3.2 0.00 0.00 0.00 60 1021.2
20260902183935 33 128 1.6 4.8 0.00 0.00 0.00 65 1021.5
20260902183431 33 133 1.6 3.2 0.00 0.00 0.00 65 1021.2
20260902182927 32 122 3.2 3.2 0.00 0.00 0.00 63 1021.2
20260902182423 32 125 1.6 3.2 0.00 0.00 0.00 62 1021.5
20260902181920 32 145 1.6 3.2 0.00 0.00 0.00 65 1021.3
20260902181415 32 137 3.2 4.8 0.00 0.00 0.00 64 1021.3
20260902180914 32 137 3.2 3.2 0.00 0.00 0.00 64 1021.5
20260902180410 32 122 3.2 4.8 0.00 0.00 0.00 63 1021.5
20260902175905 32 135 3.2 3.2 0.00 0.00 0.00 65 1021.7
20260902175400 32 131 1.6 3.2 0.00 0.00 0.00 66 1021.7
20260902174856 32 134 1.6 3.2 0.00 0.00 0.00 65 1021.8
20260902174353 32 132 3.2 3.2 0.00 0.00 0.00 66 1021.8
20260902173848 31 110 3.2 3.2 0.00 0.00 0.00 67 1022.0
20260902173348 32 128 3.2 3.2 0.00 0.00 0.00 70 1022.1
20260902172843 32 120 3.2 3.2 0.00 0.00 0.00 65 1022.0
20260902172342 31 126 3.2 4.8 0.00 0.00 0.00 66 1022.2
20260902171837 31 131 3.2 3.2 0.00 0.00 0.00 71 1022.5
20260902171332 31 123 3.2 4.8 0.00 0.00 0.00 71 1022.5
20260902170829 31 126 1.6 3.2 0.00 0.00 0.00 67 1022.6
20260902170325 31 125 1.6 3.2 0.00 0.00 0.00 70 1022.5
20260902165820 31 119 1.6 3.2 0.00 0.00 0.00 71 1022.5
20260902165319 31 112 3.2 3.2 0.00 0.00 0.00 74 1022.6
20260902164814 31 121 3.2 4.8 0.00 0.00 0.00 69 1022.9
20260902164309 31 107 4.8 4.8 0.00 0.00 0.00 71 1022.9
20260902163803 30 116 1.6 4.8 0.00 0.00 0.00 74 1023.1
20260902163302 30 104 3.2 4.8 0.00 0.00 0.00 72 1023.0
20260902162756 30 119 4.8 4.8 0.00 0.00 0.00 74 1023.1
20260902162251 30 114 4.8 4.8 0.00 0.00 0.00 78 1023.1
20260902161745 30 113 3.2 6.4 0.00 0.00 0.00 76 1023.2
20260902161241 30 113 3.2 4.8 0.00 0.00 0.00 78 1023.3
20260902160737 30 113 3.2 6.4 0.00 0.00 0.00 77 1023.3
20260902160232 30 108 3.2 4.8 0.00 0.00 0.00 81 1023.3
20260902155730 29 107 4.8 6.4 0.00 0.00 0.00 78 1023.4
20260902155229 29 110 4.8 6.4 0.00 0.00 0.00 80 1023.3
20260902154724 29 105 4.8 4.8 0.00 0.00 0.00 78 1023.3
20260902154224 29 102 4.8 4.8 0.00 0.00 0.00 80 1023.4
20260902153723 29 112 4.8 4.8 0.00 0.00 0.00 80 1023.4
20260902153218 29 106 4.8 4.8 0.00 0.00 0.00 80 1023.7
20260902152714 29 105 4.8 4.8 0.00 0.00 0.00 79 1023.4
20260902152209 29 113 4.8 6.4 0.00 0.00 0.00 78 1023.5
20260902151705 28 115 4.8 4.8 0.00 0.00 0.00 79 1023.5
20260902151200 29 120 4.8 6.4 0.00 0.00 0.00 82 1023.5
20260902150655 28 106 3.2 4.8 0.00 0.00 0.00 81 1023.4
20260902150151 28 113 3.2 4.8 0.00 0.00 0.00 79 1023.6
20260902145650 28 119 4.8 4.8 0.00 0.00 0.00 82 1023.6
20260902145150 28 109 3.2 4.8 0.00 0.00 0.00 79 1023.5
20260902144646 28 117 3.2 4.8 0.00 0.00 0.00 80 1023.5
20260902144141 28 122 3.2 6.4 0.00 0.00 0.00 81 1023.6
20260902143636 28 120 3.2 4.8 0.00 0.00 0.00 83 1023.3
20260902143131 28 110 3.2 4.8 0.00 0.00 0.00 84 1023.4
20260902142627 28 127 3.2 4.8 0.00 0.00 0.00 82 1023.5
20260902142123 27 113 3.2 4.8 0.00 0.00 0.00 84 1023.3
20260902141622 27 117 3.2 4.8 0.00 0.00 0.00 85 1023.1
20260902141118 27 124 3.2 4.8 0.00 0.00 0.00 85 1023.2
20260902140613 27 108 3.2 4.8 0.00 0.00 0.00 86 1023.3
20260902140108 27 118 3.2 4.8 0.00 0.00 0.00 85 1023.3
20260902135607 27 113 3.2 3.2 0.00 0.00 0.00 86 1023.3
20260902135103 27 105 3.2 4.8 0.00 0.00 0.00 85 1023.6
20260902134558 27 114 3.2 6.4 0.00 0.00 0.00 85 1023.4
20260902134058 27 131 1.6 3.2 0.00 0.00 0.00 86 1023.3
20260902133553 27 111 3.2 3.2 0.00 0.00 0.00 85 1023.4
20260902133052 27 119 1.6 3.2 0.00 0.00 0.00 85 1023.5
20260902132548 27 116 1.6 3.2 0.00 0.00 0.00 84 1023.4
20260902132044 27 130 1.6 3.2 0.00 0.00 0.00 85 1023.4
20260902131539 27 150 0.0 3.2 0.00 0.00 0.00 83 1023.7
20260902131034 28 147 0.0 1.6 0.00 0.00 0.00 81 1023.5
20260902130530 27 135 1.6 3.2 0.00 0.00 0.00 82 1023.6
20260902130025 27 131 1.6 1.6 0.00 0.00 0.00 82 1023.3
20260902125521 28 132 1.6 1.6 0.00 0.00 0.00 80 1023.1
20260902125016 27 152 0.0 1.6 0.00 0.00 0.00 85 1023.1
20260902124513 26 129 0.0 1.6 0.00 0.00 0.00 91 1023.1
20260902124012 26 119 0.0 0.0 0.00 0.00 0.00 93 1023.4
20260902123508 25 113 0.0 0.0 0.00 0.00 0.00 94 1023.2
20260902123008 24 103 0.0 1.6 0.00 0.00 0.00 95 1023.2
20260902122502 24 7 1.6 1.6 0.00 0.00 0.00 95 1023.3
20260902121958 24 344 1.6 3.2 0.00 0.00 0.00 95 1023.3
20260902121453 23 339 1.6 1.6 0.00 0.00 0.00 96 1023.0
20260902120948 23 345 1.6 3.2 0.00 0.00 0.00 96 1023.1
20260902120444 23 344 1.6 3.2 0.00 0.00 0.00 97 1022.9
20260902115943 23 332 1.6 3.2 0.00 0.00 0.00 97 1023.1
20260902115440 23 346 1.6 3.2 0.00 0.00 0.00 97 1022.6
20260902114936 23 0 1.6 3.2 0.00 0.00 0.00 98 1022.6
20260902114427 22 339 3.2 3.2 0.00 0.00 0.00 98 1022.6
20260902113926 23 356 1.6 3.2 0.00 0.00 0.00 98 1022.4
20260902113422 22 346 1.6 3.2 0.00 0.00 0.00 98 1022.2
20260902112921 23 351 3.2 3.2 0.00 0.00 0.00 98 1022.3
20260902112412 22 350 3.2 3.2 0.00 0.00 0.00 98 1022.4
20260902111908 22 334 3.2 3.2 0.00 0.00 0.00 98 1022.4
20260902111404 22 342 1.6 3.2 0.00 0.00 0.00 99 1022.2
20260902110900 22 346 1.6 3.2 0.00 0.00 0.00 99 1022.3
20260902110355 22 333 1.6 3.2 0.00 0.00 0.00 99 1022.1
20260902105855 22 329 1.6 3.2 0.00 0.00 0.00 99 1022.3
20260902105350 23 345 1.6 4.8 0.00 0.00 0.00 99 1022.1
20260902104845 23 330 3.2 3.2 0.00 0.00 0.00 99 1021.9
20260902104341 23 337 1.6 3.2 0.00 0.00 0.00 99 1022.2
20260902103841 23 338 1.6 3.2 0.00 0.00 0.00 99 1022.1
20260902103336 23 347 1.6 3.2 0.00 0.00 0.00 99 1022.0
20260902102831 23 20 1.6 1.6 0.00 0.00 0.00 99 1022.2
20260902102329 23 325 3.2 3.2 0.00 0.00 0.00 99 1022.0
20260902101824 23 329 3.2 3.2 0.00 0.00 0.00 99 1022.0
20260902101319 23 329 3.2 3.2 0.00 0.00 0.00 99 1021.7
20260902100819 23 331 3.2 3.2 0.00 0.00 0.00 99 1021.9
20260902100318 23 345 1.6 3.2 0.00 0.00 0.00 99 1021.8
20260902095814 23 343 3.2 3.2 0.00 0.00 0.00 99 1021.7
20260902095313 23 340 3.2 3.2 0.00 0.00 0.00 98 1021.8
20260902094808 23 334 3.2 3.2 0.00 0.00 0.00 98 1021.7
20260902094304 23 342 3.2 3.2 0.00 0.00 0.00 98 1021.7
20260902093804 23 343 3.2 3.2 0.00 0.00 0.00 99 1021.6
20260902093259 23 339 3.2 3.2 0.00 0.00 0.00 98 1021.7
20260902092757 23 324 3.2 3.2 0.00 0.00 0.00 98 1021.7
20260902092253 23 345 1.6 3.2 0.00 0.00 0.00 98 1021.7
20260902091752 23 337 3.2 3.2 0.00 0.00 0.00 98 1021.6
20260902091249 23 339 1.6 3.2 0.00 0.00 0.00 98 1021.7
20260902090745 23 330 3.2 4.8 0.00 0.00 0.00 98 1021.5
20260902090244 23 350 3.2 3.2 0.00 0.00 0.00 98 1021.4
20260902085739 23 343 1.6 3.2 0.00 0.00 0.00 98 1021.3
20260902085234 23 341 3.2 3.2 0.00 0.00 0.00 98 1021.4
20260902084730 23 337 1.6 3.2 0.00 0.00 0.00 98 1021.5
20260902084226 23 343 1.6 1.6 0.00 0.00 0.00 98 1021.2
20260902083720 23 330 1.6 3.2 0.00 0.00 0.00 98 1021.3
20260902083215 23 336 3.2 3.2 0.00 0.00 0.00 98 1021.1
20260902082710 23 343 3.2 3.2 0.00 0.00 0.00 98 1021.0
20260902082207 23 336 3.2 3.2 0.00 0.00 0.00 98 1021.1
20260902081703 23 339 1.6 3.2 0.00 0.00 0.00 98 1021.3
20260902081202 23 336 3.2 3.2 0.00 0.00 0.00 98 1021.1
20260902080657 23 338 3.2 3.2 0.00 0.00 0.00 98 1021.0
20260902080154 23 333 3.2 3.2 0.00 0.00 0.00 98 1021.1
20260902075649 23 337 1.6 3.2 0.00 0.00 0.00 98 1020.8
20260902075145 23 348 1.6 4.8 0.00 0.00 0.00 98 1020.8
20260902074645 23 341 1.6 3.2 0.00 0.00 0.00 98 1020.8
20260902074140 23 335 3.2 3.2 0.00 0.00 0.00 97 1021.0
20260902073635 23 327 1.6 3.2 0.00 0.00 0.00 97 1020.9
20260902073132 23 329 1.6 3.2 0.00 0.00 0.00 97 1021.0
20260902072627 23 351 1.6 3.2 0.00 0.00 0.00 97 1020.9
20260902072124 23 334 3.2 3.2 0.00 0.00 0.00 97 1021.0
20260902071620 23 330 3.2 3.2 0.00 0.00 0.00 97 1021.2
20260902071115 23 333 1.6 3.2 0.00 0.00 0.00 97 1021.3
20260902070611 24 332 1.6 3.2 0.00 0.00 0.00 97 1021.3
20260902070105 23 341 3.2 4.8 0.00 0.00 0.00 97 1021.4
20260902065604 23 330 3.2 3.2 0.00 0.00 0.00 97 1021.3
20260902065100 24 356 1.6 3.2 0.00 0.00 0.00 97 1021.2
20260902064556 23 342 3.2 3.2 0.00 0.00 0.00 96 1021.2
20260902064056 23 333 3.2 3.2 0.00 0.00 0.00 96 1021.1
20260902063556 23 334 3.2 3.2 0.00 0.00 0.00 96 1021.1
20260902063051 23 332 3.2 3.2 0.00 0.00 0.00 96 1021.2
20260902062550 24 341 1.6 3.2 0.00 0.00 0.00 96 1021.2
20260902062046 23 334 3.2 3.2 0.00 0.00 0.00 95 1021.3
20260902061544 23 334 3.2 3.2 0.00 0.00 0.00 95 1021.2
20260902061041 23 333 3.2 3.2 0.00 0.00 0.00 95 1021.4
20260902060538 24 342 3.2 3.2 0.00 0.00 0.00 94 1021.3
20260902060034 24 336 3.2 3.2 0.00 0.00 0.00 94 1021.3
20260902055529 24 329 1.6 3.2 0.00 0.00 0.00 94 1021.2
20260902055025 24 346 3.2 3.2 0.00 0.00 0.00 93 1021.2
20260902054525 24 339 3.2 3.2 0.00 0.00 0.00 92 1021.3
20260902054020 23 339 3.2 3.2 0.00 0.00 0.00 92 1021.3
20260902053515 24 334 3.2 3.2 0.00 0.00 0.00 92 1021.2
20260902053010 24 331 3.2 3.2 0.00 0.00 0.00 92 1021.3
20260902052510 24 341 3.2 4.8 0.00 0.00 0.00 92 1021.3
20260902052005 24 335 3.2 3.2 0.00 0.00 0.00 92 1021.3
20260902051500 24 343 3.2 3.2 0.00 0.00 0.00 91 1021.3
20260902050958 24 341 3.2 3.2 0.00 0.00 0.00 91 1021.4
20260902050453 24 337 3.2 3.2 0.00 0.00 0.00 91 1021.3
20260902045948 24 341 3.2 3.2 0.00 0.00 0.00 91 1021.3
20260902045443 24 338 1.6 3.2 0.00 0.00 0.00 91 1021.1
20260902044939 24 340 3.2 3.2 0.00 0.00 0.00 90 1021.2
20260902044429 24 341 3.2 3.2 0.00 0.00 0.00 90 1021.2
20260902043925 25 341 3.2 3.2 0.00 0.00 0.00 90 1021.3
20260902043420 25 338 3.2 3.2 0.00 0.00 0.00 90 1021.4
20260902042915 25 337 3.2 3.2 0.00 0.00 0.00 91 1021.1
20260902042414 25 349 3.2 3.2 0.00 0.00 0.00 90 1021.0
20260902041909 25 334 3.2 4.8 0.00 0.00 0.00 89 1021.2
20260902041409 25 338 3.2 3.2 0.00 0.00 0.00 90 1021.3
20260902040908 25 332 3.2 4.8 0.00 0.00 0.00 89 1021.3
20260902040404 25 340 3.2 3.2 0.00 0.00 0.00 89 1021.2
20260902035903 25 338 3.2 3.2 0.00 0.00 0.00 90 1021.2
20260902035358 25 338 3.2 3.2 0.00 0.00 0.00 89 1021.3
20260902034856 25 341 3.2 3.2 0.00 0.00 0.00 89 1021.4
20260902034353 25 336 3.2 3.2 0.00 0.00 0.00 89 1021.2
20260902033851 25 341 3.2 3.2 0.00 0.00 0.00 88 1021.3
20260902033346 25 333 3.2 3.2 0.00 0.00 0.00 88 1021.2
20260902032844 25 342 1.6 3.2 0.00 0.00 0.00 88 1021.5
20260902032344 25 334 1.6 3.2 0.00 0.00 0.00 88 1021.3
20260902031839 25 334 3.2 3.2 0.00 0.00 0.00 88 1021.2
20260902031335 25 328 3.2 3.2 0.00 0.00 0.00 88 1021.3
20260902030830 26 1 1.6 3.2 0.00 0.00 0.00 88 1021.3
20260902030325 25 335 3.2 3.2 0.00 0.00 0.00 87 1021.5
20260902025824 26 348 1.6 3.2 0.00 0.00 0.00 88 1021.3
20260902025320 25 333 3.2 3.2 0.00 0.00 0.00 87 1021.5
20260902024815 26 338 3.2 4.8 0.00 0.00 0.00 86 1021.5
20260902024310 26 340 3.2 3.2 0.00 0.00 0.00 87 1021.5
20260902023805 26 341 3.2 3.2 0.00 0.00 0.00 86 1021.4
20260902023300 26 338 3.2 3.2 0.00 0.00 0.00 86 1021.6
20260902022759 26 340 3.2 3.2 0.00 0.00 0.00 86 1021.5
20260902022255 26 333 3.2 3.2 0.00 0.00 0.00 85 1021.4
20260902021751 26 341 3.2 3.2 0.00 0.00 0.00 85 1021.2
20260902021250 26 340 3.2 3.2 0.00 0.00 0.00 84 1021.5
20260902020747 26 341 1.6 3.2 0.00 0.00 0.00 84 1021.3
20260902020243 26 339 3.2 3.2 0.00 0.00 0.00 85 1021.2
20260902015737 26 333 3.2 3.2 0.00 0.00 0.00 85 1020.9
20260902015234 26 339 3.2 4.8 0.00 0.00 0.00 85 1021.1
20260902014730 26 334 1.6 3.2 0.00 0.00 0.00 84 1021.1
20260902014226 26 333 3.2 3.2 0.00 0.00 0.00 84 1021.0
20260902013724 27 340 3.2 3.2 0.00 0.00 0.00 84 1020.8
20260902013221 27 332 3.2 3.2 0.00 0.00 0.00 83 1020.8
20260902012716 27 336 3.2 3.2 0.00 0.00 0.00 82 1021.0
20260902012212 27 335 3.2 3.2 0.00 0.00 0.00 84 1020.9
20260902011707 27 335 1.6 4.8 0.00 0.00 0.00 82 1020.8
20260902011206 27 340 1.6 1.6 0.00 0.00 0.00 82 1020.9
20260902010705 27 331 3.2 3.2 0.00 0.00 0.00 81 1020.9
20260902010201 27 339 3.2 4.8 0.00 0.00 0.00 81 1020.7
20260902005659 27 341 3.2 4.8 0.00 0.00 0.00 80 1020.7
20260902005155 27 332 3.2 3.2 0.00 0.00 0.00 80 1020.5
20260902004655 27 336 3.2 3.2 0.00 0.00 0.00 80 1020.7
20260902004150 28 331 3.2 3.2 0.00 0.00 0.00 80 1020.6
20260902003646 28 351 3.2 4.8 0.00 0.00 0.00 80 1020.5
20260902003142 28 348 3.2 3.2 0.00 0.00 0.00 79 1020.8
20260902002636 28 2 3.2 3.2 0.00 0.00 0.00 80 1020.6
20260902002131 28 359 1.6 3.2 0.00 0.00 0.00 79 1020.5
20260902001626 28 333 3.2 4.8 0.00 0.00 0.00 79 1020.5
20260902001120 28 336 3.2 4.8 0.00 0.00 0.00 78 1020.6
20260902000616 29 349 3.2 3.2 0.00 0.00 0.00 77 1020.6
20260902000111 29 339 3.2 4.8 0.00 0.00 0.00 77 1020.5
20260901235610 29 341 3.2 3.2 0.00 0.00 0.00 76 1020.6